Wind_Speed
14 13 12 12 12 11 10 9 10 11 12 14 16 17 19 17 14 10 8 4 2 6 9 9 12 18 25 19 19 12 8 20 18 19 18 15 20 17 12 15 13 5 15 28 22
14 15 14 13 12 12 11 10 10 12 12 14 15 18 19 20 16 13 7 3 2 6 6 6 11 21 12 3 10 10 13 19 19 23 16 18 20 18 20 22 16 13 13 23 23
14 15 15 14 13 13 12 11 12 12 12 14 15 17 18 20 17 11 8 5 1 6 11 6 8 10 8 8 6 9 17 19 15 12 19 20 17 13 11 15 12 11 17 22 18
15 14 15 16 14 14 14 12 13 12 13 14 15 16 18 20 13 11 8 7 4 1 6 1 6 2 12 21 8 12 13 15 20 15 15 18 12 17 10 11 10 12 18 20 18
16 15 15 16 16 14 14 14 13 13 13 15 16 16 19 23 19 6 11 10 8 2 8 7 18 15 13 2 11 17 12 11 8 17 16 12 14 18 14 9 13 17 23 19 16
16 15 15 16 17 15 15 15 15 14 14 15 17 17 20 23 22 10 6 13 11 5 5 13 17 9 14 7 9 12 10 11 12 16 11 15 16 12 15 15 14 17 20 15 10
16 15 14 16 16 17 15 14 16 15 15 16 17 18 22 18 17 10 8 12 13 5 8 14 8 10 6 6 7 10 15 7 9 10 13 13 16 16 17 14 15 13 18 11 14
17 16 15 14 16 17 16 14 15 16 16 15 18 20 21 19 22 20 12 9 13 3 5 12 12 10 7 6 4 3 12 12 10 5 16 16 18 17 15 13 16 15 16 13 15
17 16 15 15 14 15 15 13 14 15 16 16 19 21 17 20 26 26 16 12 7 4 3 12 5 8 9 6 9 13 11 9 12 4 15 11 17 17 15 12 16 17 11 12 9
17 17 15 14 13 12 13 11 11 15 17 18 21 18 15 23 25 24 19 16 14 9 8 14 10 6 8 12 25 14 14 17 13 13 7 17 17 16 17 14 16 13 9 11 4
16 15 14 12 11 9 9 8 9 9 19 21 13 23 14 9 10 17 21 18 13 16 13 14 14 8 4 13 8 10 13 11 13 10 10 19 19 19 15 13 15 12 11 11 8
15 15 13 10 9 8 12 16 14 12 21 25 19 21 15 12 12 13 19 18 15 18 13 12 21 18 17 3 8 10 4 10 10 7 11 23 19 17 16 13 7 13 8 7 5
14 14 13 8 8 7 10 14 12 13 21 26 28 21 19 7 12 19 20 20 20 17 19 14 11 14 14 17 12 12 10 7 10 2 11 20 18 17 13 17 8 6 11 3 3
15 14 13 8 7 8 12 9 8 9 10 25 29 30 25 11 19 22 23 23 22 21 18 19 17 13 6 12 8 19 11 16 3 18 9 6 10 17 15 16 17 9 12 11 6
16 14 15 11 9 13 15 15 7 9 4 11 28 28 29 25 18 25 23 24 24 21 18 21 18 6 9 3 2 6 12 20 17 4 15 8 13 18 13 16 16 16 15 8 10
16 15 15 13 11 19 15 7 16 8 10 6 17 31 28 30 22 18 24 25 23 23 23 20 15 13 7 3 4 4 5 15 20 13 5 7 10 21 20 15 12 5 11 16 12
16 16 15 15 14 14 16 14 8 9 15 7 30 31 25 29 24 24 27 31 31 25 28 22 15 17 11 5 7 2 14 6 8 1 6 12 10 11 15 15 14 9 10 8 9
15 17 16 14 17 16 19 19 13 13 22 15 24 26 30 26 26 27 28 32 32 27 18 20 16 17 14 11 5 7 21 10 5 3 11 16 9 21 18 16 10 11 11 12 16
15 18 17 18 21 22 21 30 20 22 30 12 30 29 28 29 26 30 32 34 29 31 30 20 19 14 12 9 8 11 16 14 15 14 11 8 22 19 16 17 20 15 16 15 20
13 15 13 18 22 25 29 39 33 35 17 7 24 21 32 32 31 33 33 32 31 28 31 25 16 13 14 13 13 6 17 11 2 3 4 21 26 22 18 22 17 21 19 16 12
9 6 6 11 22 28 39 42 43 43 25 19 18 18 29 33 36 35 32 27 32 32 32 30 22 17 23 20 18 14 24 16 10 10 8 4 17 17 19 21 14 20 15 12 13
8 8 4 10 19 28 36 35 34 44 31 29 26 27 28 37 39 37 33 32 29 34 32 26 12 17 31 20 20 18 14 17 17 10 6 16 17 19 18 15 19 19 17 13 9
14 15 15 22 22 23 23 28 34 37 33 22 24 19 15 38 41 38 36 32 23 29 31 26 25 19 15 23 15 12 4 15 21 26 31 16 20 20 27 19 19 24 18 13 7
14 13 15 26 28 23 23 26 27 35 32 23 24 21 22 15 39 37 38 32 31 28 30 26 24 14 12 27 21 16 12 8 1 10 5 20 30 25 19 19 16 14 11 14 11
14 9 13 19 28 25 30 31 31 29 26 20 27 29 21 14 12 39 37 28 32 34 29 27 30 21 18 8 14 20 17 13 6 15 19 35 27 24 24 18 13 12 10 12 15
12 14 21 20 17 20 25 23 38 25 25 23 21 25 18 15 18 41 38 30 34 29 31 29 26 15 9 18 16 14 21 22 10 16 25 30 33 31 26 22 19 14 10 8 9
18 18 18 24 25 15 14 36 29 23 22 21 16 18 17 13 12 32 35 22 36 34 27 25 24 10 12 10 15 21 22 25 17 16 14 38 35 30 25 20 16 12 9 7 7
Wind_Direction
276 276 277 271 266 260 248 239 241 246 237 223 219 217 215 217 221 219 210 202 71 48 28 344 352 14 352 326 354 339 56 96 108 123 119 125 107 102 100 110 90 87 107 131 137
274 271 271 271 263 260 251 242 238 241 239 227 221 217 217 219 223 211 196 216 36 26 57 350 23 12 7 331 354 351 83 93 101 124 108 115 118 125 126 134 138 139 125 129 132
280 270 266 266 265 258 251 240 236 237 239 227 222 218 216 217 223 186 216 200 297 37 87 120 357 337 343 21 345 16 95 96 102 115 98 122 125 128 130 142 162 144 132 120 106
286 276 266 261 260 258 252 242 234 233 236 228 222 219 213 212 218 213 220 218 225 53 71 299 353 46 74 56 77 74 93 94 113 102 106 104 109 131 123 127 134 121 109 118 135
293 281 271 261 257 256 251 244 234 230 232 227 222 220 212 210 183 156 215 224 223 138 70 32 345 249 337 307 94 105 100 120 89 104 120 126 111 131 125 130 116 103 106 112 147
295 293 276 267 253 251 250 241 236 227 227 224 222 221 216 215 191 242 268 214 215 230 34 352 323 111 350 207 44 116 110 128 114 125 101 118 122 134 129 129 123 100 105 115 166
290 292 289 270 259 249 247 240 234 227 225 221 220 223 220 193 182 209 248 213 217 245 5 350 322 325 107 67 78 158 147 126 146 140 119 131 126 129 139 139 118 124 126 108 152
290 289 287 281 264 247 246 241 232 230 225 220 221 227 222 193 189 196 175 227 206 173 351 304 315 332 158 3 125 158 172 156 173 155 146 162 136 144 153 139 125 130 149 157 184
290 289 287 278 274 252 243 243 232 229 227 221 221 227 218 200 211 211 202 192 191 249 254 276 319 287 240 202 60 29 307 265 174 189 158 155 145 151 164 145 137 155 165 182 214
289 289 288 278 271 255 239 245 231 228 229 221 220 226 215 212 218 217 210 187 199 222 225 257 282 8 154 111 124 73 213 221 207 189 170 155 152 156 159 153 154 172 178 197 254
287 284 286 281 261 251 217 212 201 234 225 220 219 231 166 340 253 221 204 193 201 212 235 237 263 298 117 208 216 291 213 248 174 174 189 161 156 159 158 155 169 179 176 211 258
284 277 280 278 245 232 197 194 176 240 229 219 201 212 176 150 212 218 197 197 211 217 221 243 251 258 288 184 206 211 324 103 124 185 196 163 156 158 171 177 162 192 195 170 224
281 268 268 267 232 224 208 222 246 230 251 218 208 195 170 181 216 212 192 196 208 222 222 219 253 246 230 248 217 210 272 211 148 101 148 160 152 163 169 192 185 201 219 199 165
276 259 256 257 213 178 161 146 242 257 277 240 217 201 183 183 207 183 198 198 209 221 222 236 257 266 254 177 216 79 94 94 107 16 341 151 155 175 174 180 205 200 222 243 217
269 250 247 242 201 183 184 195 187 181 284 236 219 208 191 191 191 196 189 198 209 212 223 229 229 229 242 202 130 63 27 78 115 198 281 178 140 174 174 185 199 222 221 238 245
262 245 236 228 211 199 201 193 173 162 243 221 204 197 202 208 203 185 193 198 206 218 224 248 244 207 227 173 249 148 17 65 59 113 237 186 151 180 182 178 190 178 211 225 244
261 244 232 222 230 216 212 204 171 226 227 262 180 184 201 198 205 206 200 198 210 224 240 240 253 216 194 175 190 205 44 44 60 358 246 232 168 180 162 161 154 121 135 170 212
253 242 230 222 229 224 205 202 215 221 206 142 188 183 198 192 204 203 203 198 210 213 232 239 237 231 178 223 161 87 71 76 41 0 306 172 109 135 128 144 141 126 130 137 149
250 243 227 216 219 226 209 202 213 202 211 228 173 178 196 202 205 203 206 201 208 209 226 226 232 202 207 209 227 143 97 89 149 238 278 206 125 128 139 144 137 125 131 137 139
258 250 228 217 211 217 217 226 225 203 195 254 258 201 203 207 207 210 204 202 207 213 217 230 198 226 194 199 227 226 170 104 274 206 315 143 145 155 156 158 150 139 149 139 119
257 251 223 228 212 215 225 230 235 219 222 258 241 272 214 211 212 214 205 206 207 214 219 230 252 231 194 201 208 186 164 156 144 150 232 157 153 162 165 155 159 158 149 135 139
204 122 16 227 213 221 234 238 243 234 230 251 261 275 265 213 216 214 213 205 204 212 223 229 242 262 187 201 219 225 201 190 183 153 96 148 138 158 154 138 145 137 132 132 140
204 163 158 194 225 245 254 248 247 245 223 236 253 260 280 207 215 208 215 212 208 209 221 223 235 258 237 188 217 232 218 117 134 127 144 152 132 152 133 142 146 132 119 124 113
210 196 214 208 223 242 249 254 250 229 238 235 257 249 256 221 212 211 216 210 210 214 209 218 227 220 238 193 201 208 204 152 149 131 179 155 144 156 146 130 130 138 132 146 159
211 228 247 228 231 242 251 260 258 230 241 240 269 233 230 248 238 206 213 215 207 212 209 210 228 244 286 231 217 198 189 159 121 98 138 155 151 148 157 161 165 171 182 188 197
196 217 229 225 222 226 240 252 210 237 243 252 233 217 228 240 263 192 206 212 188 189 202 211 220 251 262 246 202 227 186 178 114 157 169 161 150 154 160 173 182 187 196 204 213
212 213 242 233 236 252 255 212 244 256 253 221 214 198 216 246 197 171 198 218 185 184 198 193 204 214 219 193 297 224 180 178 164 166 199 150 150 160 155 171 191 194 185 152 174
Height
3152 3153 3153 3153 3153 3153 3154 3154 3154 3154 3155 3156 3158 3160 3162 3164 3167 3169 3171 3175 3176 3178 3181 3169 3171 3173 3176 3168 3167 3165 3165 3165 3165 3166 3169 3169 3169 3170 3166 3165 3168 3169 3171 3175 3180
3150 3150 3150 3151 3151 3151 3152 3152 3152 3153 3153 3155 3156 3158 3160 3163 3166 3169 3173 3175 3175 3177 3180 3174 3176 3174 3174 3171 3172 3167 3170 3169 3169 3169 3170 3169 3169 3170 3170 3171 3172 3171 3175 3177 3181
3147 3147 3148 3148 3148 3149 3150 3150 3151 3151 3152 3153 3155 3156 3159 3162 3166 3169 3171 3174 3175 3176 3178 3179 3178 3178 3174 3169 3170 3166 3172 3173 3172 3171 3171 3169 3170 3170 3170 3173 3174 3173 3175 3179 3182
3145 3145 3145 3145 3146 3146 3147 3148 3149 3149 3150 3151 3153 3155 3157 3161 3167 3167 3171 3173 3175 3176 3177 3179 3180 3177 3170 3167 3167 3167 3173 3173 3173 3173 3172 3173 3172 3172 3171 3174 3175 3176 3178 3180 3183
3142 3142 3142 3142 3143 3144 3145 3146 3146 3147 3148 3149 3151 3153 3156 3158 3163 3165 3169 3172 3174 3175 3176 3177 3173 3171 3175 3170 3172 3173 3174 3173 3174 3174 3174 3173 3172 3172 3174 3176 3177 3179 3182 3184 3188
3140 3139 3139 3139 3140 3141 3142 3143 3144 3145 3146 3147 3149 3151 3153 3156 3163 3164 3168 3171 3173 3173 3175 3175 3175 3174 3170 3171 3174 3175 3175 3174 3176 3176 3176 3174 3174 3174 3177 3178 3180 3182 3185 3187 3189
3137 3137 3137 3136 3136 3137 3139 3140 3142 3143 3144 3146 3147 3149 3151 3156 3160 3163 3167 3170 3172 3173 3172 3176 3174 3172 3172 3172 3171 3173 3174 3177 3176 3176 3178 3177 3178 3177 3178 3180 3182 3185 3188 3192 3192
3135 3134 3134 3133 3133 3134 3136 3137 3139 3141 3142 3143 3145 3146 3147 3155 3157 3160 3162 3167 3171 3172 3174 3174 3172 3173 3174 3173 3173 3175 3173 3176 3177 3178 3179 3180 3180 3180 3181 3182 3185 3188 3192 3193 3195
3131 3131 3130 3130 3131 3131 3133 3135 3136 3138 3139 3141 3143 3145 3148 3151 3154 3158 3162 3165 3170 3172 3174 3174 3173 3170 3173 3173 3177 3181 3179 3179 3177 3178 3179 3180 3181 3182 3183 3185 3188 3191 3192 3194 3195
3128 3127 3126 3127 3128 3129 3131 3133 3134 3135 3137 3139 3140 3146 3146 3148 3152 3156 3162 3164 3167 3172 3173 3173 3173 3173 3173 3175 3180 3180 3174 3176 3176 3177 3179 3179 3180 3183 3185 3187 3190 3192 3193 3194 3195
3124 3123 3123 3124 3125 3127 3130 3131 3133 3134 3131 3135 3138 3140 3143 3149 3152 3154 3159 3163 3165 3170 3171 3172 3172 3171 3174 3176 3176 3172 3175 3172 3174 3176 3178 3179 3180 3183 3185 3188 3190 3192 3193 3195 3196
3121 3120 3120 3121 3122 3124 3127 3127 3127 3130 3128 3130 3134 3135 3141 3142 3149 3152 3158 3162 3164 3166 3170 3172 3170 3169 3173 3173 3172 3171 3169 3174 3176 3176 3177 3180 3183 3185 3186 3187 3189 3191 3192 3193 3194
3117 3117 3118 3119 3120 3123 3127 3129 3129 3128 3126 3126 3130 3134 3138 3142 3144 3150 3155 3159 3162 3165 3167 3170 3167 3167 3171 3169 3172 3170 3171 3175 3179 3178 3179 3180 3185 3186 3189 3189 3190 3190 3192 3193 3193
3113 3114 3114 3116 3121 3120 3121 3122 3126 3127 3127 3123 3125 3130 3133 3137 3141 3147 3152 3158 3160 3163 3164 3168 3166 3166 3165 3168 3170 3175 3173 3172 3176 3180 3183 3182 3184 3185 3187 3189 3190 3190 3189 3191 3192
3108 3110 3111 3114 3117 3118 3119 3119 3125 3128 3129 3119 3119 3127 3132 3134 3141 3143 3148 3155 3158 3160 3164 3163 3165 3166 3166 3170 3171 3173 3169 3169 3177 3180 3188 3180 3182 3185 3186 3187 3188 3189 3189 3192 3192
3104 3105 3108 3111 3114 3115 3118 3121 3122 3128 3121 3113 3113 3118 3127 3131 3136 3141 3146 3152 3156 3157 3159 3160 3163 3165 3167 3168 3168 3172 3171 3172 3175 3178 3186 3177 3178 3182 3181 3184 3187 3188 3190 3191 3191
3100 3101 3104 3107 3110 3113 3116 3121 3124 3120 3114 3107 3110 3117 3121 3127 3133 3136 3143 3148 3150 3155 3155 3157 3161 3162 3165 3167 3167 3168 3169 3171 3180 3187 3181 3179 3179 3176 3179 3183 3186 3188 3189 3191 3193
3095 3097 3100 3104 3106 3109 3113 3118 3115 3108 3107 3110 3111 3117 3121 3125 3129 3133 3139 3144 3148 3151 3154 3156 3159 3159 3161 3164 3167 3167 3170 3173 3188 3194 3184 3177 3179 3178 3179 3183 3186 3188 3189 3192 3194
3091 3092 3097 3100 3103 3105 3109 3106 3101 3101 3105 3109 3113 3115 3120 3124 3128 3130 3135 3140 3145 3146 3151 3153 3155 3157 3159 3163 3166 3168 3173 3182 3188 3195 3190 3179 3179 3180 3182 3184 3186 3189 3191 3193 3195
3087 3088 3093 3095 3098 3100 3100 3094 3094 3098 3101 3107 3114 3116 3117 3121 3125 3126 3130 3136 3141 3143 3147 3149 3154 3155 3158 3162 3163 3164 3170 3180 3184 3187 3185 3177 3178 3180 3182 3184 3186 3189 3191 3194 3197
3084 3086 3089 3091 3093 3094 3089 3089 3092 3094 3101 3104 3104 3110 3116 3117 3120 3121 3126 3133 3137 3140 3143 3146 3153 3153 3156 3157 3159 3163 3166 3170 3176 3185 3185 3179 3179 3180 3182 3185 3187 3188 3191 3193 3196
3082 3086 3086 3086 3089 3088 3086 3090 3094 3089 3098 3097 3101 3103 3107 3112 3115 3118 3121 3127 3133 3136 3139 3144 3148 3149 3150 3153 3155 3158 3162 3165 3170 3172 3175 3177 3179 3180 3183 3186 3185 3190 3192 3194 3196
3080 3083 3085 3088 3085 3084 3084 3085 3086 3089 3089 3091 3094 3095 3100 3103 3110 3114 3117 3124 3128 3131 3135 3140 3145 3148 3147 3152 3153 3157 3159 3162 3163 3164 3174 3174 3179 3181 3184 3186 3189 3192 3194 3196 3196
3079 3080 3083 3083 3084 3086 3085 3083 3081 3084 3085 3086 3088 3091 3096 3098 3104 3109 3113 3118 3124 3128 3132 3139 3141 3145 3146 3145 3150 3154 3157 3159 3160 3164 3167 3171 3174 3180 3184 3186 3189 3192 3195 3195 3197
3075 3076 3075 3075 3077 3082 3083 3083 3078 3077 3080 3082 3084 3087 3090 3094 3096 3101 3106 3113 3118 3123 3128 3134 3137 3141 3142 3144 3146 3151 3152 3155 3156 3157 3161 3168 3170 3176 3181 3185 3188 3190 3192 3194 3195
3070 3070 3071 3069 3072 3078 3077 3075 3073 3067 3078 3078 3081 3082 3086 3090 3091 3093 3100 3107 3111 3119 3124 3130 3134 3138 3138 3141 3148 3148 3147 3151 3154 3156 3161 3167 3172 3177 3179 3184 3186 3188 3189 3191 3194
3065 3066 3067 3066 3071 3073 3071 3072 3067 3068 3070 3076 3077 3079 3083 3084 3085 3086 3098 3103 3107 3114 3120 3126 3131 3138 3136 3139 3140 3142 3145 3148 3152 3156 3159 3165 3172 3175 3178 3183 3185 3187 3189 3190 3193